Time,TemperatureF,DewpointF,PressureIn,WindDirection,WindDirectionDegrees,WindSpeedMPH,WindSpeedGustMPH,Humidity,HourlyPrecipIn,Conditions,Clouds,dailyrainin,SoftwareType,DateUTC
2013-03-21 00:00:00,27.1,9.1,29.21,NW,322,0.0,0.0,46,0.00,,,0.00,VWS V14.01,2013-03-21 04:00:00,
2013-03-21 00:01:00,27.1,9.1,29.21,NW,322,0.0,0.0,46,0.00,,,0.00,VWS V14.01,2013-03-21 04:01:00,
2013-03-21 00:06:00,27.1,9.1,29.21,NW,322,0.0,0.0,46,0.00,,,0.00,VWS V14.01,2013-03-21 04:06:00,
2013-03-21 00:11:00,27.0,8.9,29.21,NW,322,0.0,0.0,46,0.00,,,0.00,VWS V14.01,2013-03-21 04:11:00,
2013-03-21 00:16:00,27.0,8.9,29.21,NW,322,0.0,0.0,46,0.00,,,0.00,VWS V14.01,2013-03-21 04:16:00,
2013-03-21 00:21:00,27.1,9.6,29.21,NW,322,0.0,0.0,47,0.00,,,0.00,VWS V14.01,2013-03-21 04:21:00,
2013-03-21 00:26:00,27.1,9.6,29.21,NW,322,0.0,0.0,47,0.00,,,0.00,VWS V14.01,2013-03-21 04:26:00,
2013-03-21 00:31:00,27.3,9.8,29.21,NW,322,0.0,0.0,47,0.00,,,0.00,VWS V14.01,2013-03-21 04:31:00,
2013-03-21 00:36:00,27.3,9.8,29.21,NW,322,0.0,0.0,47,0.00,,,0.00,VWS V14.01,2013-03-21 04:36:00,
2013-03-21 00:41:00,27.5,10.4,29.21,NW,322,0.0,0.0,48,0.00,,,0.00,VWS V14.01,2013-03-21 04:41:00,
2013-03-21 00:46:00,27.5,10.4,29.23,NW,322,0.0,0.0,48,0.00,,,0.00,VWS V14.01,2013-03-21 04:46:00,
2013-03-21 00:51:00,27.7,10.6,29.23,NW,322,0.0,0.0,48,0.00,,,0.00,VWS V14.01,2013-03-21 04:51:00,
2013-03-21 00:56:00,27.7,10.6,29.23,NW,322,0.0,0.0,48,0.00,,,0.00,VWS V14.01,2013-03-21 04:56:00,
2013-03-21 01:01:00,27.9,10.7,29.23,NW,322,0.0,0.0,48,0.00,,,0.00,VWS V14.01,2013-03-21 05:01:00,
2013-03-21 01:07:00,27.9,10.7,29.23,NW,322,0.0,0.0,48,0.00,,,0.00,VWS V14.01,2013-03-21 05:07:00,
2013-03-21 01:12:00,27.9,10.7,29.23,NW,322,0.0,0.0,48,0.00,,,0.00,VWS V14.01,2013-03-21 05:12:00,
2013-03-21 01:17:00,28.2,11.5,29.23,NW,322,0.0,0.0,49,0.00,,,0.00,VWS V14.01,2013-03-21 05:17:00,
2013-03-21 01:22:00,28.2,11.5,29.23,NW,322,0.0,0.0,49,0.00,,,0.00,VWS V14.01,2013-03-21 05:22:00,
2013-03-21 01:27:00,28.4,11.7,29.23,NW,322,0.0,0.0,49,0.00,,,0.00,VWS V14.01,2013-03-21 05:27:00,
2013-03-21 01:32:00,28.6,11.9,29.23,NW,322,0.0,0.0,49,0.00,,,0.00,VWS V14.01,2013-03-21 05:32:00,
2013-03-21 01:37:00,28.6,11.9,29.23,NW,322,0.0,0.0,49,0.00,,,0.00,VWS V14.01,2013-03-21 05:37:00,
2013-03-21 01:42:00,28.8,12.0,29.23,NW,322,0.0,0.0,49,0.00,,,0.00,VWS V14.01,2013-03-21 05:42:00,
2013-03-21 01:47:00,28.8,12.0,29.23,NW,322,0.0,0.0,49,0.00,,,0.00,VWS V14.01,2013-03-21 05:47:00,
2013-03-21 01:52:00,28.8,12.5,29.23,NW,322,0.0,0.0,50,0.00,,,0.00,VWS V14.01,2013-03-21 05:52:00,
2013-03-21 01:57:00,28.8,12.5,29.23,NW,319,0.0,0.0,50,0.00,,,0.00,VWS V14.01,2013-03-21 05:57:00,
2013-03-21 02:02:00,28.8,12.5,29.23,NE,46,0.0,0.0,50,0.00,,,0.00,VWS V14.01,2013-03-21 06:02:00,
2013-03-21 02:07:00,28.8,12.9,29.23,NE,46,0.0,0.0,51,0.00,,,0.00,VWS V14.01,2013-03-21 06:07:00,
2013-03-21 02:12:00,28.9,13.1,29.23,NE,46,0.0,0.0,51,0.00,,,0.00,VWS V14.01,2013-03-21 06:12:00,
2013-03-21 02:17:00,29.1,13.3,29.23,NE,46,0.0,0.0,51,0.00,,,0.00,VWS V14.01,2013-03-21 06:17:00,
2013-03-21 02:22:00,29.1,13.3,29.23,NE,46,0.0,0.0,51,0.00,,,0.00,VWS V14.01,2013-03-21 06:22:00,
2013-03-21 02:27:00,29.3,13.4,29.21,NE,46,0.0,0.0,51,0.00,,,0.00,VWS V14.01,2013-03-21 06:27:00,
2013-03-21 02:32:00,29.3,13.4,29.21,NE,46,0.0,0.0,51,0.00,,,0.00,VWS V14.01,2013-03-21 06:32:00,
2013-03-21 02:37:00,29.3,13.4,29.21,NE,46,0.0,0.0,51,0.00,,,0.00,VWS V14.01,2013-03-21 06:37:00,
2013-03-21 02:43:00,29.3,13.4,29.21,NE,46,0.0,0.0,51,0.00,,,0.00,VWS V14.01,2013-03-21 06:43:00,
2013-03-21 02:48:00,29.3,13.4,29.21,NE,46,0.0,0.0,51,0.00,,,0.00,VWS V14.01,2013-03-21 06:48:00,
2013-03-21 02:53:00,29.3,13.4,29.21,NE,46,0.0,0.0,51,0.00,,,0.00,VWS V14.01,2013-03-21 06:53:00,
2013-03-21 02:58:00,29.3,13.4,29.21,NE,46,0.0,0.0,51,0.00,,,0.00,VWS V14.01,2013-03-21 06:58:00,
2013-03-21 03:03:00,29.3,13.4,29.21,NE,46,0.0,0.0,51,0.00,,,0.00,VWS V14.01,2013-03-21 07:03:00,
2013-03-21 03:08:00,29.1,13.3,29.21,NE,46,0.0,0.0,51,0.00,,,0.00,VWS V14.01,2013-03-21 07:08:00,
2013-03-21 03:13:00,28.9,13.1,29.21,NE,46,0.0,0.0,51,0.00,,,0.00,VWS V14.01,2013-03-21 07:13:00,
2013-03-21 03:18:00,28.9,13.1,29.21,NE,46,0.0,0.0,51,0.00,,,0.00,VWS V14.01,2013-03-21 07:18:00,
2013-03-21 03:23:00,28.8,12.9,29.21,NE,46,0.0,0.0,51,0.00,,,0.00,VWS V14.01,2013-03-21 07:23:00,
2013-03-21 03:28:00,28.6,12.8,29.21,NE,46,0.0,0.0,51,0.00,,,0.00,VWS V14.01,2013-03-21 07:28:00,
2013-03-21 03:33:00,28.6,12.8,29.21,NE,46,0.0,0.0,51,0.00,,,0.00,VWS V14.01,2013-03-21 07:33:00,
2013-03-21 03:38:00,28.6,12.8,29.21,NE,46,0.0,0.0,51,0.00,,,0.00,VWS V14.01,2013-03-21 07:38:00,
2013-03-21 03:43:00,28.6,12.8,29.18,NE,46,0.0,0.0,51,0.00,,,0.00,VWS V14.01,2013-03-21 07:43:00,
2013-03-21 03:48:00,28.6,13.2,29.18,NE,46,0.0,0.0,52,0.00,,,0.00,VWS V14.01,2013-03-21 07:48:00,
2013-03-21 03:53:00,28.6,13.2,29.18,NE,46,0.0,0.0,52,0.00,,,0.00,VWS V14.01,2013-03-21 07:53:00,
2013-03-21 03:58:00,28.6,13.2,29.18,NE,46,0.0,0.0,52,0.00,,,0.00,VWS V14.01,2013-03-21 07:58:00,
2013-03-21 04:03:00,28.6,13.2,29.18,NE,46,0.0,0.0,52,0.00,,,0.00,VWS V14.01,2013-03-21 08:03:00,
2013-03-21 04:08:00,28.8,12.9,29.18,NE,46,0.0,0.0,51,0.00,,,0.00,VWS V14.01,2013-03-21 08:08:00,
2013-03-21 04:13:00,28.8,12.9,29.18,NE,46,0.0,0.0,51,0.00,,,0.00,VWS V14.01,2013-03-21 08:13:00,
2013-03-21 04:18:00,28.9,13.1,29.18,NE,46,0.0,0.0,51,0.00,,,0.00,VWS V14.01,2013-03-21 08:18:00,
2013-03-21 04:23:00,28.9,13.1,29.18,NE,46,0.0,0.0,51,0.00,,,0.00,VWS V14.01,2013-03-21 08:23:00,
2013-03-21 04:28:00,28.9,12.6,29.18,NE,46,0.0,0.0,50,0.00,,,0.00,VWS V14.01,2013-03-21 08:28:00,
2013-03-21 04:33:00,28.8,11.6,29.18,NE,46,0.0,0.0,48,0.00,,,0.00,VWS V14.01,2013-03-21 08:33:00,
2013-03-21 04:38:00,28.6,10.9,29.18,ESE,112,0.0,0.0,47,0.00,,,0.00,VWS V14.01,2013-03-21 08:38:00,
2013-03-21 04:43:00,28.6,10.9,29.18,ESE,112,0.0,0.0,47,0.00,,,0.00,VWS V14.01,2013-03-21 08:43:00,
2013-03-21 04:48:00,28.6,10.9,29.18,ESE,112,0.0,0.0,47,0.00,,,0.00,VWS V14.01,2013-03-21 08:48:00,
2013-03-21 04:53:00,28.8,11.1,29.18,ESE,112,0.0,0.0,47,0.00,,,0.00,VWS V14.01,2013-03-21 08:53:00,
2013-03-21 04:58:00,28.8,11.1,29.18,ESE,112,0.0,0.0,47,0.00,,,0.00,VWS V14.01,2013-03-21 08:58:00,
2013-03-21 05:03:00,28.9,11.2,29.18,ESE,112,0.0,0.0,47,0.00,,,0.00,VWS V14.01,2013-03-21 09:03:00,
2013-03-21 05:08:00,28.9,11.2,29.18,ESE,112,0.0,0.0,47,0.00,,,0.00,VWS V14.01,2013-03-21 09:08:00,
2013-03-21 05:13:00,28.9,11.2,29.18,ESE,112,0.0,0.0,47,0.00,,,0.00,VWS V14.01,2013-03-21 09:13:00,
2013-03-21 05:18:00,28.8,11.1,29.18,ESE,112,0.0,0.0,47,0.00,,,0.00,VWS V14.01,2013-03-21 09:18:00,
2013-03-21 05:23:00,28.8,11.1,29.18,ESE,112,0.0,0.0,47,0.00,,,0.00,VWS V14.01,2013-03-21 09:23:00,
2013-03-21 05:28:00,28.8,11.1,29.18,ESE,112,0.0,0.0,47,0.00,,,0.00,VWS V14.01,2013-03-21 09:28:00,
2013-03-21 05:33:00,28.8,11.1,29.18,ESE,112,0.0,0.0,47,0.00,,,0.00,VWS V14.01,2013-03-21 09:33:00,
2013-03-21 05:38:00,28.9,11.2,29.18,ESE,112,0.0,0.0,47,0.00,,,0.00,VWS V14.01,2013-03-21 09:38:00,
2013-03-21 05:44:00,28.9,11.2,29.18,ESE,112,0.0,0.0,47,0.00,,,0.00,VWS V14.01,2013-03-21 09:44:00,
2013-03-21 05:49:00,28.8,11.1,29.18,ESE,112,0.0,0.0,47,0.00,,,0.00,VWS V14.01,2013-03-21 09:49:00,
2013-03-21 05:54:00,28.6,10.9,29.18,ESE,112,0.0,0.0,47,0.00,,,0.00,VWS V14.01,2013-03-21 09:54:00,
2013-03-21 05:59:00,28.6,10.9,29.18,ESE,112,0.0,0.0,47,0.00,,,0.00,VWS V14.01,2013-03-21 09:59:00,
2013-03-21 06:04:00,28.6,10.9,29.18,ESE,112,0.0,0.0,47,0.00,,,0.00,VWS V14.01,2013-03-21 10:04:00,
2013-03-21 06:09:00,28.8,11.1,29.18,ESE,112,0.0,0.0,47,0.00,,,0.00,VWS V14.01,2013-03-21 10:09:00,
2013-03-21 06:14:00,28.8,11.1,29.18,ESE,112,0.0,0.0,47,0.00,,,0.00,VWS V14.01,2013-03-21 10:14:00,
2013-03-21 06:19:00,28.8,10.6,29.18,ESE,112,0.0,0.0,46,0.00,,,0.00,VWS V14.01,2013-03-21 10:19:00,
2013-03-21 06:24:00,28.6,10.4,29.18,ESE,112,0.0,0.0,46,0.00,,,0.00,VWS V14.01,2013-03-21 10:24:00,
2013-03-21 06:29:00,28.6,10.4,29.18,ESE,123,0.0,0.0,46,0.00,,,0.00,VWS V14.01,2013-03-21 10:29:00,
2013-03-21 06:34:00,28.6,10.4,29.18,ESE,123,0.0,0.0,46,0.00,,,0.00,VWS V14.01,2013-03-21 10:34:00,
2013-03-21 06:39:00,28.6,10.4,29.18,ESE,123,0.0,0.0,46,0.00,,,0.00,VWS V14.01,2013-03-21 10:39:00,
2013-03-21 06:44:00,28.6,10.4,29.18,ESE,123,0.0,0.0,46,0.00,,,0.00,VWS V14.01,2013-03-21 10:44:00,
2013-03-21 06:49:00,28.6,10.4,29.18,ESE,123,0.0,0.0,46,0.00,,,0.00,VWS V14.01,2013-03-21 10:49:00,
2013-03-21 06:54:00,28.6,10.4,29.18,ESE,123,0.0,0.0,46,0.00,,,0.00,VWS V14.01,2013-03-21 10:54:00,
2013-03-21 06:59:00,28.6,10.4,29.18,ESE,123,0.0,0.0,46,0.00,,,0.00,VWS V14.01,2013-03-21 10:59:00,
2013-03-21 07:04:00,28.6,10.4,29.18,ESE,123,0.0,0.0,46,0.00,,,0.00,VWS V14.01,2013-03-21 11:04:00,
2013-03-21 07:09:00,28.6,10.4,29.18,ESE,123,0.0,0.0,46,0.00,,,0.00,VWS V14.01,2013-03-21 11:09:00,
2013-03-21 07:14:00,28.6,10.4,29.18,ESE,123,0.0,0.0,46,0.00,,,0.00,VWS V14.01,2013-03-21 11:14:00,
2013-03-21 07:19:00,28.6,10.4,29.18,ESE,123,0.0,0.0,46,0.00,,,0.00,VWS V14.01,2013-03-21 11:19:00,
2013-03-21 07:24:00,28.6,10.4,29.18,ESE,123,0.0,0.0,46,0.00,,,0.00,VWS V14.01,2013-03-21 11:24:00,
2013-03-21 07:29:00,28.6,10.4,29.18,ESE,123,0.0,0.0,46,0.00,,,0.00,VWS V14.01,2013-03-21 11:29:00,
2013-03-21 07:34:00,28.8,10.6,29.18,ESE,123,0.0,0.0,46,0.00,,,0.00,VWS V14.01,2013-03-21 11:34:00,
2013-03-21 07:39:00,28.8,10.6,29.18,ESE,123,0.0,0.0,46,0.00,,,0.00,VWS V14.01,2013-03-21 11:39:00,
2013-03-21 07:44:00,28.8,10.1,29.18,ESE,123,0.0,0.0,45,0.00,,,0.00,VWS V14.01,2013-03-21 11:44:00,
2013-03-21 07:49:00,28.8,9.6,29.18,ESE,123,0.0,0.0,44,0.00,,,0.00,VWS V14.01,2013-03-21 11:49:00,
2013-03-21 07:54:00,28.8,9.6,29.18,ESE,123,0.0,0.0,44,0.00,,,0.00,VWS V14.01,2013-03-21 11:54:00,
2013-03-21 07:59:00,28.8,9.6,29.18,ESE,123,0.0,0.0,44,0.00,,,0.00,VWS V14.01,2013-03-21 11:59:00,
2013-03-21 08:04:00,28.9,9.8,29.18,ESE,123,0.0,0.0,44,0.00,,,0.00,VWS V14.01,2013-03-21 12:04:00,
2013-03-21 08:09:00,29.1,9.9,29.18,ENE,65,0.0,0.0,44,0.00,,,0.00,VWS V14.01,2013-03-21 12:09:00,
2013-03-21 08:14:00,29.3,9.6,29.18,East,90,0.0,0.0,43,0.00,,,0.00,VWS V14.01,2013-03-21 12:14:00,
2013-03-21 08:19:00,29.5,9.2,29.18,East,95,3.1,3.1,42,0.00,,,0.00,VWS V14.01,2013-03-21 12:19:00,
2013-03-21 08:24:00,29.7,9.4,29.18,SE,139,0.0,0.0,42,0.00,,,0.00,VWS V14.01,2013-03-21 12:24:00,
2013-03-21 08:29:00,29.7,8.9,29.18,SE,144,3.1,3.1,41,0.00,,,0.00,VWS V14.01,2013-03-21 12:29:00,
2013-03-21 08:34:00,29.7,8.9,29.18,SE,145,0.0,0.0,41,0.00,,,0.00,VWS V14.01,2013-03-21 12:34:00,
2013-03-21 08:39:00,30.9,9.4,29.18,SE,131,0.0,0.0,40,0.00,,,0.00,VWS V14.01,2013-03-21 12:39:00,
2013-03-21 08:44:00,30.7,9.3,29.18,ENE,75,4.0,4.0,40,0.00,,,0.00,VWS V14.01,2013-03-21 12:44:00,
2013-03-21 08:49:00,30.6,8.0,29.18,ENE,68,4.9,4.9,38,0.00,,,0.00,VWS V14.01,2013-03-21 12:49:00,
2013-03-21 08:54:00,30.2,7.1,29.18,ESE,112,4.0,4.0,37,0.00,,,0.00,VWS V14.01,2013-03-21 12:54:00,
2013-03-21 08:59:00,30.2,7.7,29.18,ENE,64,4.0,4.0,38,0.00,,,0.00,VWS V14.01,2013-03-21 12:59:00,
2013-03-21 09:04:00,30.2,6.5,29.18,ENE,71,5.8,5.8,36,0.00,,,0.00,VWS V14.01,2013-03-21 13:04:00,
2013-03-21 09:09:00,30.0,6.9,29.18,East,101,3.6,5.4,37,0.00,,,0.00,VWS V14.01,2013-03-21 13:09:00,
2013-03-21 09:14:00,30.0,6.9,29.18,East,95,3.1,3.1,37,0.00,,,0.00,VWS V14.01,2013-03-21 13:14:00,
2013-03-21 09:19:00,30.2,7.1,29.18,East,95,2.7,2.7,37,0.00,,,0.00,VWS V14.01,2013-03-21 13:19:00,
2013-03-21 09:24:00,30.4,6.0,29.18,SE,138,4.9,5.8,35,0.00,,,0.00,VWS V14.01,2013-03-21 13:24:00,
2013-03-21 09:29:00,30.4,6.6,29.18,SE,138,4.0,4.0,36,0.00,,,0.00,VWS V14.01,2013-03-21 13:29:00,
2013-03-21 09:34:00,30.4,6.0,29.18,SSE,154,4.0,4.0,35,0.00,,,0.00,VWS V14.01,2013-03-21 13:34:00,
2013-03-21 09:39:00,30.4,6.0,29.18,SE,146,3.1,3.1,35,0.00,,,0.00,VWS V14.01,2013-03-21 13:39:00,
2013-03-21 09:44:00,30.4,6.6,29.18,SE,144,4.9,4.9,36,0.00,,,0.00,VWS V14.01,2013-03-21 13:44:00,
2013-03-21 09:49:00,30.6,6.2,29.15,ESE,122,4.0,4.0,35,0.00,,,0.00,VWS V14.01,2013-03-21 13:49:00,
2013-03-21 09:54:00,30.7,5.7,29.15,ENE,78,0.0,0.0,34,0.00,,,0.00,VWS V14.01,2013-03-21 13:54:00,
2013-03-21 09:59:00,31.1,6.0,29.15,ESE,119,5.8,5.8,34,0.00,,,0.00,VWS V14.01,2013-03-21 13:59:00,
2013-03-21 10:04:00,31.3,5.5,29.15,NE,46,2.2,2.2,33,0.00,,,0.00,VWS V14.01,2013-03-21 14:04:00,
2013-03-21 10:09:00,31.6,5.8,29.15,NE,55,3.1,3.6,33,0.00,,,0.00,VWS V14.01,2013-03-21 14:09:00,
2013-03-21 10:14:00,32.2,6.3,29.15,ENE,64,4.9,4.9,33,0.00,,,0.00,VWS V14.01,2013-03-21 14:14:00,
2013-03-21 10:19:00,32.4,5.8,29.15,SE,146,4.0,4.0,32,0.00,,,0.00,VWS V14.01,2013-03-21 14:19:00,
2013-03-21 10:24:00,32.2,5.0,29.15,SSE,156,5.8,5.8,31,0.00,,,0.00,VWS V14.01,2013-03-21 14:24:00,
2013-03-21 10:29:00,32.0,4.8,29.15,East,100,3.6,3.6,31,0.00,,,0.00,VWS V14.01,2013-03-21 14:29:00,
2013-03-21 10:34:00,32.0,4.8,29.15,NE,53,2.7,2.7,31,0.00,,,0.00,VWS V14.01,2013-03-21 14:34:00,
2013-03-21 10:39:00,32.4,5.1,29.15,ENE,69,3.1,4.0,31,0.00,,,0.00,VWS V14.01,2013-03-21 14:39:00,
2013-03-21 10:44:00,32.9,5.6,29.15,ENE,63,8.1,8.1,31,0.00,,,0.00,VWS V14.01,2013-03-21 14:44:00,
2013-03-21 10:49:00,33.3,5.9,29.15,ENE,78,0.0,0.0,31,0.00,,,0.00,VWS V14.01,2013-03-21 14:49:00,
2013-03-21 10:54:00,33.4,6.1,29.15,South,173,4.0,4.0,31,0.00,,,0.00,VWS V14.01,2013-03-21 14:54:00,
2013-03-21 10:59:00,33.8,5.7,29.15,SE,139,3.6,3.6,30,0.00,,,0.00,VWS V14.01,2013-03-21 14:59:00,
2013-03-21 11:04:00,33.6,5.5,29.15,North,11,3.6,3.6,30,0.00,,,0.00,VWS V14.01,2013-03-21 15:04:00,
2013-03-21 11:09:00,33.6,5.5,29.15,NE,41,2.7,2.7,30,0.00,,,0.00,VWS V14.01,2013-03-21 15:09:00,
2013-03-21 11:14:00,33.6,5.5,29.15,WNW,297,0.0,0.0,30,0.00,,,0.00,VWS V14.01,2013-03-21 15:14:00,
2013-03-21 11:19:00,33.8,5.7,29.15,SSW,197,0.0,0.0,30,0.00,,,0.00,VWS V14.01,2013-03-21 15:19:00,
2013-03-21 11:24:00,34.5,6.3,29.15,ESE,103,4.5,5.4,30,0.00,,,0.00,VWS V14.01,2013-03-21 15:24:00,
2013-03-21 11:30:00,34.9,4.3,29.15,NNE,25,3.6,4.9,27,0.00,,,0.00,VWS V14.01,2013-03-21 15:30:00,
2013-03-21 11:35:00,35.1,4.5,29.15,East,79,0.0,2.2,27,0.00,,,0.00,VWS V14.01,2013-03-21 15:35:00,
2013-03-21 11:40:00,35.1,2.8,29.15,SE,139,3.1,5.8,25,0.00,,,0.00,VWS V14.01,2013-03-21 15:40:00,
2013-03-21 11:45:00,34.7,2.5,29.15,ENE,69,2.2,2.2,25,0.00,,,0.00,VWS V14.01,2013-03-21 15:45:00,
2013-03-21 11:50:00,34.9,2.6,29.12,ENE,66,0.0,0.0,25,0.00,,,0.00,VWS V14.01,2013-03-21 15:50:00,
2013-03-21 11:55:00,34.9,2.6,29.12,SE,139,3.6,3.6,25,0.00,,,0.00,VWS V14.01,2013-03-21 15:55:00,
2013-03-21 12:00:00,35.2,3.0,29.12,NE,37,4.0,4.9,25,0.00,,,0.00,VWS V14.01,2013-03-21 16:00:00,
2013-03-21 12:05:00,35.4,3.1,29.12,SSE,165,3.6,4.9,25,0.00,,,0.00,VWS V14.01,2013-03-21 16:05:00,
2013-03-21 12:10:00,35.4,0.4,29.12,SSE,156,0.0,0.0,22,0.00,,,0.00,VWS V14.01,2013-03-21 16:10:00,
2013-03-21 12:15:00,35.6,0.5,29.12,SE,132,4.0,4.0,22,0.00,,,0.00,VWS V14.01,2013-03-21 16:15:00,
2013-03-21 12:20:00,35.8,0.7,29.12,SE,130,5.8,5.8,22,0.00,,,0.00,VWS V14.01,2013-03-21 16:20:00,
2013-03-21 12:25:00,36.1,1.0,29.12,ENE,72,2.7,2.7,22,0.00,,,0.00,VWS V14.01,2013-03-21 16:25:00,
2013-03-21 12:30:00,36.5,1.3,29.12,SSE,158,5.4,5.4,22,0.00,,,0.00,VWS V14.01,2013-03-21 16:30:00,
2013-03-21 12:35:00,36.9,1.6,29.12,East,80,6.3,6.3,22,0.00,,,0.00,VWS V14.01,2013-03-21 16:35:00,
2013-03-21 12:40:00,36.7,1.4,29.12,ESE,121,4.9,4.9,22,0.00,,,0.00,VWS V14.01,2013-03-21 16:40:00,
2013-03-21 12:45:00,36.3,1.1,29.09,ESE,122,5.8,5.8,22,0.00,,,0.00,VWS V14.01,2013-03-21 16:45:00,
2013-03-21 12:50:00,35.8,0.7,29.09,ESE,108,6.3,6.3,22,0.00,,,0.00,VWS V14.01,2013-03-21 16:50:00,
2013-03-21 12:55:00,35.8,0.7,29.09,East,100,2.7,2.7,22,0.00,,,0.00,VWS V14.01,2013-03-21 16:55:00,
2013-03-21 13:00:00,35.6,0.5,29.09,ENE,69,0.0,0.0,22,0.00,,,0.00,VWS V14.01,2013-03-21 17:00:00,
2013-03-21 13:05:00,35.6,0.5,29.09,East,92,4.9,4.9,22,0.00,,,0.00,VWS V14.01,2013-03-21 17:05:00,
2013-03-21 13:10:00,35.8,0.7,29.09,SE,141,5.8,5.8,22,0.00,,,0.00,VWS V14.01,2013-03-21 17:10:00,
2013-03-21 13:15:00,36.3,1.1,29.09,North,3,6.3,6.3,22,0.00,,,0.00,VWS V14.01,2013-03-21 17:15:00,
2013-03-21 13:20:00,36.7,1.4,29.09,East,79,4.0,4.0,22,0.00,,,0.00,VWS V14.01,2013-03-21 17:20:00,
2013-03-21 13:25:00,36.7,1.4,29.09,ESE,123,5.8,5.8,22,0.00,,,0.00,VWS V14.01,2013-03-21 17:25:00,
2013-03-21 13:30:00,36.7,1.4,29.09,ENE,69,2.2,2.2,22,0.00,,,0.00,VWS V14.01,2013-03-21 17:30:00,
2013-03-21 13:35:00,36.5,1.3,29.09,NE,34,0.0,0.0,22,0.00,,,0.00,VWS V14.01,2013-03-21 17:35:00,
2013-03-21 13:40:00,36.9,1.6,29.09,ESE,118,0.0,0.0,22,0.00,,,0.00,VWS V14.01,2013-03-21 17:40:00,
2013-03-21 13:45:00,37.2,1.9,29.09,East,84,4.0,4.0,22,0.00,,,0.00,VWS V14.01,2013-03-21 17:45:00,
2013-03-21 13:50:00,37.0,-1.4,29.09,ENE,64,5.8,5.8,19,0.00,,,0.00,VWS V14.01,2013-03-21 17:50:00,
2013-03-21 13:55:00,36.9,1.6,29.06,ENE,78,5.4,5.4,22,0.00,,,0.00,VWS V14.01,2013-03-21 17:55:00,
2013-03-21 14:00:00,37.4,1.0,29.06,ENE,61,3.6,3.6,21,0.00,,,0.00,VWS V14.01,2013-03-21 18:00:00,
2013-03-21 14:05:00,37.6,1.2,29.06,NE,44,3.6,4.0,21,0.00,,,0.00,VWS V14.01,2013-03-21 18:05:00,
2013-03-21 14:10:00,37.6,1.2,29.06,NNE,19,5.4,5.4,21,0.00,,,0.00,VWS V14.01,2013-03-21 18:10:00,
2013-03-21 14:15:00,37.2,1.9,29.06,ENE,57,4.0,4.0,22,0.00,,,0.00,VWS V14.01,2013-03-21 18:15:00,
2013-03-21 14:20:00,37.0,1.7,29.06,East,95,2.7,2.7,22,0.00,,,0.00,VWS V14.01,2013-03-21 18:20:00,
2013-03-21 14:25:00,37.4,1.0,29.06,North,3,2.2,2.2,21,0.00,,,0.00,VWS V14.01,2013-03-21 18:25:00,
2013-03-21 14:30:00,37.8,1.4,29.06,North,1,5.8,5.8,21,0.00,,,0.00,VWS V14.01,2013-03-21 18:30:00,
2013-03-21 14:35:00,37.6,1.2,29.06,East,88,4.0,4.0,21,0.00,,,0.00,VWS V14.01,2013-03-21 18:35:00,
2013-03-21 14:40:00,37.4,1.0,29.06,NNW,344,3.1,3.1,21,0.00,,,0.00,VWS V14.01,2013-03-21 18:40:00,
2013-03-21 14:45:00,36.9,1.6,29.06,ENE,57,8.3,8.3,22,0.00,,,0.00,VWS V14.01,2013-03-21 18:45:00,
2013-03-21 14:50:00,36.3,1.1,29.06,SSW,196,2.7,2.7,22,0.00,,,0.00,VWS V14.01,2013-03-21 18:50:00,
2013-03-21 14:55:00,36.1,1.0,29.06,ESE,116,2.7,4.0,22,0.00,,,0.00,VWS V14.01,2013-03-21 18:55:00,
2013-03-21 15:00:00,36.1,1.0,29.06,North,349,0.0,0.0,22,0.00,,,0.00,VWS V14.01,2013-03-21 19:00:00,
2013-03-21 15:05:00,36.3,1.1,29.06,NE,38,2.7,2.7,22,0.00,,,0.00,VWS V14.01,2013-03-21 19:05:00,
2013-03-21 15:10:00,36.7,1.4,29.03,North,10,0.0,0.0,22,0.00,,,0.00,VWS V14.01,2013-03-21 19:10:00,
2013-03-21 15:15:00,36.7,1.4,29.03,NE,54,4.9,4.9,22,0.00,,,0.00,VWS V14.01,2013-03-21 19:15:00,
2013-03-21 15:20:00,36.5,1.3,29.03,SSE,153,0.0,0.0,22,0.00,,,0.00,VWS V14.01,2013-03-21 19:20:00,
2013-03-21 15:25:00,36.7,1.4,29.03,SSW,210,0.0,0.0,22,0.00,,,0.00,VWS V14.01,2013-03-21 19:25:00,
2013-03-21 15:30:00,36.7,1.4,29.03,West,269,0.0,0.0,22,0.00,,,0.00,VWS V14.01,2013-03-21 19:30:00,
2013-03-21 15:35:00,38.3,4.7,29.03,WSW,247,0.0,0.0,24,0.00,,,0.00,VWS V14.01,2013-03-21 19:35:00,
2013-03-21 15:40:00,38.5,4.8,29.03,WSW,240,0.0,0.0,24,0.00,,,0.00,VWS V14.01,2013-03-21 19:40:00,
2013-03-21 15:45:00,39.2,2.6,29.03,SSE,160,0.0,0.0,21,0.00,,,0.00,VWS V14.01,2013-03-21 19:45:00,
2013-03-21 15:50:00,39.4,2.7,29.03,South,171,4.0,4.0,21,0.00,,,0.00,VWS V14.01,2013-03-21 19:50:00,
2013-03-21 15:55:00,39.4,2.7,29.03,SSE,165,0.0,0.0,21,0.00,,,0.00,VWS V14.01,2013-03-21 19:55:00,
2013-03-21 16:01:00,39.4,2.7,29.03,SE,142,3.1,3.6,21,0.00,,,0.00,VWS V14.01,2013-03-21 20:01:00,
2013-03-21 16:06:00,38.5,2.0,29.03,South,186,2.7,4.0,21,0.00,,,0.00,VWS V14.01,2013-03-21 20:06:00,
2013-03-21 16:10:00,38.5,2.0,29.03,SSE,156,0.0,4.0,21,0.00,,,0.00,VWS V14.01,2013-03-21 20:10:00,
2013-03-21 16:16:00,38.7,2.1,29.03,NNE,17,4.9,4.9,21,0.00,,,0.00,VWS V14.01,2013-03-21 20:16:00,
2013-03-21 16:21:00,38.8,2.3,29.03,SW,219,3.1,4.0,21,0.00,,,0.00,VWS V14.01,2013-03-21 20:21:00,
2013-03-21 16:26:00,39.0,2.4,29.03,NW,315,2.7,2.7,21,0.00,,,0.00,VWS V14.01,2013-03-21 20:26:00,
2013-03-21 16:31:00,39.0,2.4,29.03,NNW,345,3.6,3.6,21,0.00,,,0.00,VWS V14.01,2013-03-21 20:31:00,
2013-03-21 16:36:00,38.5,2.0,29.03,SSE,164,5.4,5.4,21,0.00,,,0.00,VWS V14.01,2013-03-21 20:36:00,
2013-03-21 16:41:00,38.1,1.6,29.03,NNE,20,5.8,5.8,21,0.00,,,0.00,VWS V14.01,2013-03-21 20:41:00,
2013-03-21 16:46:00,37.9,1.5,29.03,NE,40,5.4,8.1,21,0.00,,,0.00,VWS V14.01,2013-03-21 20:46:00,
2013-03-21 16:51:00,37.9,1.5,29.03,NE,38,5.8,5.8,21,0.00,,,0.00,VWS V14.01,2013-03-21 20:51:00,
2013-03-21 16:56:00,37.6,1.2,29.03,ENE,73,6.3,6.3,21,0.00,,,0.00,VWS V14.01,2013-03-21 20:56:00,
2013-03-21 17:01:00,37.4,1.0,29.03,NE,50,6.3,6.3,21,0.00,,,0.00,VWS V14.01,2013-03-21 21:01:00,
2013-03-21 17:06:00,37.4,1.0,29.03,NNE,31,4.9,4.9,21,0.00,,,0.00,VWS V14.01,2013-03-21 21:06:00,
2013-03-21 17:11:00,37.2,1.9,29.03,ENE,58,4.0,4.0,22,0.00,,,0.00,VWS V14.01,2013-03-21 21:11:00,
2013-03-21 17:16:00,37.2,1.9,29.03,ENE,64,4.0,4.0,22,0.00,,,0.00,VWS V14.01,2013-03-21 21:16:00,
2013-03-21 17:21:00,37.0,1.7,29.03,NE,49,4.0,4.9,22,0.00,,,0.00,VWS V14.01,2013-03-21 21:21:00,
2013-03-21 17:26:00,37.0,1.7,29.03,ENE,66,0.0,4.0,22,0.00,,,0.00,VWS V14.01,2013-03-21 21:26:00,
2013-03-21 17:32:00,37.2,1.9,29.03,NNE,33,4.0,4.0,22,0.00,,,0.00,VWS V14.01,2013-03-21 21:32:00,
2013-03-21 17:37:00,36.9,1.6,29.03,NNE,25,0.0,4.5,22,0.00,,,0.00,VWS V14.01,2013-03-21 21:37:00,
2013-03-21 17:42:00,36.9,1.6,29.03,NE,39,2.7,3.1,22,0.00,,,0.00,VWS V14.01,2013-03-21 21:42:00,
2013-03-21 17:47:00,36.9,1.6,29.03,NNE,29,3.1,3.1,22,0.00,,,0.00,VWS V14.01,2013-03-21 21:47:00,
2013-03-21 17:52:00,37.0,1.7,29.03,NE,55,2.7,2.7,22,0.00,,,0.00,VWS V14.01,2013-03-21 21:52:00,
2013-03-21 17:57:00,37.0,-1.4,29.03,East,81,4.0,4.0,19,0.00,,,0.00,VWS V14.01,2013-03-21 21:57:00,
2013-03-21 18:02:00,36.9,-1.5,29.03,ENE,63,5.4,5.4,19,0.00,,,0.00,VWS V14.01,2013-03-21 22:02:00,
2013-03-21 18:07:00,36.9,-1.5,29.03,ENE,57,2.7,3.6,19,0.00,,,0.00,VWS V14.01,2013-03-21 22:07:00,
2013-03-21 18:12:00,37.2,-1.2,29.03,NE,44,3.6,3.6,19,0.00,,,0.00,VWS V14.01,2013-03-21 22:12:00,
2013-03-21 18:17:00,37.8,-0.8,29.03,ENE,61,3.6,3.6,19,0.00,,,0.00,VWS V14.01,2013-03-21 22:17:00,
2013-03-21 18:22:00,37.6,-0.9,29.03,NNE,25,4.9,4.9,19,0.00,,,0.00,VWS V14.01,2013-03-21 22:22:00,
2013-03-21 18:27:00,37.2,-1.2,29.03,NE,34,5.8,5.8,19,0.00,,,0.00,VWS V14.01,2013-03-21 22:27:00,
2013-03-21 18:32:00,36.9,-1.5,29.03,NE,37,3.1,3.1,19,0.00,,,0.00,VWS V14.01,2013-03-21 22:32:00,
2013-03-21 18:37:00,36.3,-2.0,29.03,ENE,58,4.0,4.0,19,0.00,,,0.00,VWS V14.01,2013-03-21 22:37:00,
2013-03-21 18:42:00,36.1,-2.1,29.03,NNE,32,6.3,6.3,19,0.00,,,0.00,VWS V14.01,2013-03-21 22:42:00,
2013-03-21 18:47:00,36.0,-2.3,29.03,NE,45,6.3,6.3,19,0.00,,,0.00,VWS V14.01,2013-03-21 22:47:00,
2013-03-21 18:52:00,35.6,-2.6,29.03,ENE,59,3.6,3.6,19,0.00,,,0.00,VWS V14.01,2013-03-21 22:52:00,
2013-03-21 18:57:00,35.4,-1.6,29.03,NNE,33,5.8,5.8,20,0.00,,,0.00,VWS V14.01,2013-03-21 22:57:00,
2013-03-21 19:02:00,35.1,-2.0,29.03,ENE,61,4.0,4.0,20,0.00,,,0.00,VWS V14.01,2013-03-21 23:02:00,
2013-03-21 19:07:00,35.1,-2.0,29.03,ENE,58,3.6,3.6,20,0.00,,,0.00,VWS V14.01,2013-03-21 23:07:00,
2013-03-21 19:12:00,34.5,-2.4,29.03,NE,47,2.7,2.7,20,0.00,,,0.00,VWS V14.01,2013-03-21 23:12:00,
2013-03-21 19:17:00,34.3,-2.6,29.03,ENE,61,4.0,4.5,20,0.00,,,0.00,VWS V14.01,2013-03-21 23:17:00,
2013-03-21 19:22:00,34.3,-2.6,29.03,NE,51,3.1,3.1,20,0.00,,,0.00,VWS V14.01,2013-03-21 23:22:00,
2013-03-21 19:27:00,34.2,-2.7,29.03,ENE,58,3.1,3.1,20,0.00,,,0.00,VWS V14.01,2013-03-21 23:27:00,
2013-03-21 19:32:00,33.8,-1.0,29.03,ENE,62,4.9,4.9,22,0.00,,,0.00,VWS V14.01,2013-03-21 23:32:00,
2013-03-21 19:37:00,33.8,-1.0,29.03,ENE,60,2.7,2.7,22,0.00,,,0.00,VWS V14.01,2013-03-21 23:37:00,
2013-03-21 19:42:00,33.6,-0.2,29.03,ENE,61,4.0,4.0,23,0.00,,,0.00,VWS V14.01,2013-03-21 23:42:00,
2013-03-21 19:47:00,33.6,-0.2,29.03,ENE,77,4.9,4.9,23,0.00,,,0.00,VWS V14.01,2013-03-21 23:47:00,
2013-03-21 19:52:00,33.4,-0.4,29.03,ENE,58,4.0,4.0,23,0.00,,,0.00,VWS V14.01,2013-03-21 23:52:00,
2013-03-21 19:57:00,33.3,-0.5,29.06,NE,56,5.4,5.4,23,0.00,,,0.00,VWS V14.01,2013-03-21 23:57:00,
2013-03-21 20:03:00,33.1,-0.7,29.06,ENE,63,6.3,6.3,23,0.00,,,0.00,VWS V14.01,2013-03-22 00:03:00,
2013-03-21 20:08:00,33.1,-0.7,29.06,NE,55,4.9,4.9,23,0.00,,,0.00,VWS V14.01,2013-03-22 00:08:00,
2013-03-21 20:13:00,32.7,-1.0,29.06,ENE,62,6.3,6.3,23,0.00,,,0.00,VWS V14.01,2013-03-22 00:13:00,
2013-03-21 20:18:00,32.7,-1.0,29.06,NE,45,5.8,5.8,23,0.00,,,0.00,VWS V14.01,2013-03-22 00:18:00,
2013-03-21 20:23:00,32.5,-1.1,29.06,ENE,67,3.1,3.1,23,0.00,,,0.00,VWS V14.01,2013-03-22 00:23:00,
2013-03-21 20:28:00,32.4,-1.3,29.06,ENE,65,2.7,3.1,23,0.00,,,0.00,VWS V14.01,2013-03-22 00:28:00,
2013-03-21 20:33:00,32.2,-1.4,29.06,ENE,68,4.0,8.3,23,0.00,,,0.00,VWS V14.01,2013-03-22 00:33:00,
2013-03-21 20:38:00,32.2,-1.4,29.06,ENE,61,2.7,5.4,23,0.00,,,0.00,VWS V14.01,2013-03-22 00:38:00,
2013-03-21 20:43:00,32.2,-1.4,29.06,ENE,72,2.7,6.3,23,0.00,,,0.00,VWS V14.01,2013-03-22 00:43:00,
2013-03-21 20:48:00,31.8,-1.8,29.06,ENE,59,6.3,6.3,23,0.00,,,0.00,VWS V14.01,2013-03-22 00:48:00,
2013-03-21 20:53:00,31.6,-1.9,29.06,ENE,60,5.8,5.8,23,0.00,,,0.00,VWS V14.01,2013-03-22 00:53:00,
2013-03-21 20:58:00,31.6,-1.9,29.06,ENE,67,8.3,8.3,23,0.00,,,0.00,VWS V14.01,2013-03-22 00:58:00,
2013-03-21 21:03:00,31.6,-1.9,29.06,NE,45,5.8,5.8,23,0.00,,,0.00,VWS V14.01,2013-03-22 01:03:00,
2013-03-21 21:08:00,31.5,-2.0,29.06,NE,55,8.1,8.1,23,0.00,,,0.00,VWS V14.01,2013-03-22 01:08:00,
2013-03-21 21:13:00,31.3,-2.2,29.06,ENE,65,8.3,8.3,23,0.00,,,0.00,VWS V14.01,2013-03-22 01:13:00,
2013-03-21 21:18:00,31.3,-2.2,29.06,ENE,78,3.1,3.1,23,0.00,,,0.00,VWS V14.01,2013-03-22 01:18:00,
2013-03-21 21:23:00,31.1,-2.4,29.06,NE,56,3.1,3.1,23,0.00,,,0.00,VWS V14.01,2013-03-22 01:23:00,
2013-03-21 21:28:00,31.1,-2.4,29.06,ENE,63,5.4,6.7,23,0.00,,,0.00,VWS V14.01,2013-03-22 01:28:00,
2013-03-21 21:33:00,30.9,-2.5,29.06,ENE,65,8.1,8.3,23,0.00,,,0.00,VWS V14.01,2013-03-22 01:33:00,
2013-03-21 21:38:00,30.9,-2.5,29.06,NE,43,5.8,5.8,23,0.00,,,0.00,VWS V14.01,2013-03-22 01:38:00,
2013-03-21 21:43:00,30.7,-2.7,29.06,ENE,65,7.6,7.6,23,0.00,,,0.00,VWS V14.01,2013-03-22 01:43:00,
2013-03-21 21:48:00,30.7,-2.7,29.06,NE,41,2.7,2.7,23,0.00,,,0.00,VWS V14.01,2013-03-22 01:48:00,
2013-03-21 21:53:00,30.4,-3.0,29.06,NE,56,5.8,5.8,23,0.00,,,0.00,VWS V14.01,2013-03-22 01:53:00,
2013-03-21 21:58:00,30.4,-3.0,29.06,NE,55,8.7,8.7,23,0.00,,,0.00,VWS V14.01,2013-03-22 01:58:00,
2013-03-21 22:03:00,30.2,-3.1,29.06,NE,55,4.0,6.3,23,0.00,,,0.00,VWS V14.01,2013-03-22 02:03:00,
2013-03-21 22:08:00,30.2,-3.1,29.06,NE,41,3.1,3.1,23,0.00,,,0.00,VWS V14.01,2013-03-22 02:08:00,
2013-03-21 22:13:00,30.2,-3.1,29.09,NE,46,0.0,0.0,23,0.00,,,0.00,VWS V14.01,2013-03-22 02:13:00,
2013-03-21 22:18:00,30.0,-3.3,29.09,ENE,60,4.9,5.8,23,0.00,,,0.00,VWS V14.01,2013-03-22 02:18:00,
2013-03-21 22:23:00,30.0,-3.3,29.09,NE,56,5.8,5.8,23,0.00,,,0.00,VWS V14.01,2013-03-22 02:23:00,
2013-03-21 22:28:00,29.7,-3.6,29.09,ENE,63,2.7,3.1,23,0.00,,,0.00,VWS V14.01,2013-03-22 02:28:00,
2013-03-21 22:33:00,29.5,-3.7,29.09,NE,51,2.7,3.1,23,0.00,,,0.00,VWS V14.01,2013-03-22 02:33:00,
2013-03-21 22:38:00,29.5,-3.7,29.09,NE,56,4.0,4.0,23,0.00,,,0.00,VWS V14.01,2013-03-22 02:38:00,
2013-03-21 22:43:00,29.5,-3.7,29.09,ENE,59,5.4,5.8,23,0.00,,,0.00,VWS V14.01,2013-03-22 02:43:00,
2013-03-21 22:48:00,29.5,-3.7,29.09,ENE,60,4.0,4.0,23,0.00,,,0.00,VWS V14.01,2013-03-22 02:48:00,
2013-03-21 22:53:00,29.5,-3.7,29.09,NE,54,4.0,4.0,23,0.00,,,0.00,VWS V14.01,2013-03-22 02:53:00,
2013-03-21 22:58:00,29.5,-3.7,29.09,NE,41,2.7,4.9,23,0.00,,,0.00,VWS V14.01,2013-03-22 02:58:00,
2013-03-21 23:03:00,29.3,-3.9,29.09,ENE,66,3.6,3.6,23,0.00,,,0.00,VWS V14.01,2013-03-22 03:03:00,
2013-03-21 23:08:00,29.3,-3.9,29.09,NE,42,4.9,4.9,23,0.00,,,0.00,VWS V14.01,2013-03-22 03:08:00,
2013-03-21 23:13:00,29.1,-4.1,29.09,ENE,64,5.8,5.8,23,0.00,,,0.00,VWS V14.01,2013-03-22 03:13:00,
2013-03-21 23:18:00,29.1,-4.1,29.09,ENE,63,5.4,6.7,23,0.00,,,0.00,VWS V14.01,2013-03-22 03:18:00,
2013-03-21 23:23:00,29.1,-4.1,29.09,ENE,60,4.0,4.0,23,0.00,,,0.00,VWS V14.01,2013-03-22 03:23:00,
2013-03-21 23:28:00,28.9,-4.2,29.09,NNE,19,3.6,5.8,23,0.00,,,0.00,VWS V14.01,2013-03-22 03:28:00,
2013-03-21 23:33:00,28.8,-4.3,29.09,North,7,5.8,5.8,23,0.00,,,0.00,VWS V14.01,2013-03-22 03:33:00,
2013-03-21 23:38:00,28.6,-4.5,29.09,NE,55,4.9,4.9,23,0.00,,,0.00,VWS V14.01,2013-03-22 03:38:00,
2013-03-21 23:43:00,28.6,-4.5,29.09,ENE,58,3.6,3.6,23,0.00,,,0.00,VWS V14.01,2013-03-22 03:43:00,
2013-03-21 23:48:00,28.4,-4.7,29.09,East,82,8.1,8.1,23,0.00,,,0.00,VWS V14.01,2013-03-22 03:48:00,
2013-03-21 23:53:00,28.4,-4.7,29.09,NE,56,6.3,6.3,23,0.00,,,0.00,VWS V14.01,2013-03-22 03:53:00,
2013-03-21 23:58:00,28.2,-4.8,29.09,ENE,71,7.6,7.6,23,0.00,,,0.00,VWS V14.01,2013-03-22 03:58:00,